This demonstration page uses our WeatherBlox Daily Observations layout. Learn more.

Left ArrowRight Arrow

39.51506, -84.39828

Hourly Observations for September 25, 2016

Temp ( °F °C ) Dew Point ( °F °C ) Humidity (%) Winds ( mph kmh ) Pressure ( in mb ) Visibility ( mi km ) Precip ( " mm )
12:15 am 00:15 Clear 69 20.8 60 15.6 72 72 N 6 9 30.12 1020 10 16 N/A
12:35 am 00:35 Clear 69 20.8 60 15.5 72 72 N 5 7 30.12 1020 10 16 N/A
12:55 am 00:55 Clear 69 20.8 60 15.4 71 71 NNE 3 6 30.12 1020 10 16 N/A
1:15 am 01:15 Clear 68 19.8 59 14.8 73 73 N 3 6 30.12 1020 10 16 N/A
1:35 am 01:35 Clear 68 20.2 59 14.8 71 71 NNE 3 6 30.12 1020 10 16 N/A
1:55 am 01:55 Clear 66 19.1 58 14.5 75 75 N 5 7 30.15 1021 10 16 N/A
2:15 am 02:15 Clear 64 18 56 13.5 75 75 N 5 7 30.15 1021 10 16 N/A
2:35 am 02:35 Clear 64 18 56 13.3 74 74 N 6 9 30.15 1021 10 16 N/A
2:55 am 02:55 Clear 64 18 56 13.2 74 74 N 6 9 30.15 1021 10 16 N/A
3:15 am 03:15 Clear 64 18 55 13 73 73 N 5 7 30.15 1021 10 16 N/A
3:35 am 03:35 Clear 64 18 55 13 73 73 N 5 7 30.15 1021 10 16 N/A
3:55 am 03:55 Clear 64 18 55 12.8 72 72 N 5 7 30.15 1021 10 16 N/A
4:15 am 04:15 Clear 64 17.5 54 12.3 72 72 NNE 3 6 30.12 1020 10 16 N/A
4:35 am 04:35 Clear 62 16.7 54 12 74 74 NE 5 7 30.12 1020 10 16 N/A
4:55 am 04:55 Clear 62 16.6 54 12.3 76 76 NNE 3 6 30.15 1021 10 16 N/A
5:15 am 05:15 Clear 62 16.6 54 12 74 74 NNE 3 6 30.15 1021 10 16 N/A
5:35 am 05:35 Clear 62 16.6 54 12 74 74 N 5 7 30.15 1021 10 16 N/A
5:55 am 05:55 Clear 61 16 53 11.6 75 75 N 3 6 30.15 1021 10 16 N/A
6:15 am 06:15 Clear 61 16 53 11.5 75 75 N N/A 30.15 1021 10 16 N/A
6:35 am 06:35 Clear 61 16 53 11.7 76 76 N N/A 30.15 1021 10 16 N/A
6:55 am 06:55 Clear 60 15.3 53 11.5 78 78 N N/A 30.15 1021 10 16 N/A
7:15 am 07:15 Clear 60 15.3 53 11.5 78 78 N N/A 30.18 1022 10 16 N/A
7:35 am 07:35 Sunny 60 15.3 53 11.5 78 78 NNW 3 6 30.18 1022 10 16 N/A
7:55 am 07:55 Sunny 60 15.3 53 11.6 79 79 N N/A 30.18 1022 10 16 N/A
8:15 am 08:15 Sunny 61 16 54 12 77 77 N 3 6 30.18 1022 10 16 N/A
8:35 am 08:35 Sunny 62 16.6 54 12.4 76 76 N N/A 30.18 1022 10 16 N/A
8:55 am 08:55 Sunny 63 17.3 53 11.8 70 70 NNE 3 6 30.15 1021 10 16 N/A
9:15 am 09:15 Sunny 64 18 54 12 68 68 NE 3 6 30.15 1021 10 16 N/A
9:35 am 09:35 Sunny 67 19.5 56 13.2 67 67 NE 3 6 30.12 1020 10 16 N/A
9:55 am 09:55 Sunny 69 20.8 58 14.3 66 66 N N/A 30.15 1021 10 16 N/A
10:15 am 10:15 Sunny 69 20.8 56 13.5 63 63 N N/A 30.15 1021 10 16 N/A
10:35 am 10:35 Sunny 69 20.8 56 13.3 62 62 N N/A 30.15 1021 10 16 N/A
10:55 am 10:55 Sunny 71 21.8 57 13.9 61 61 N N/A 30.15 1021 10 16 N/A
11:15 am 11:15 Sunny 74 23.6 59 15.2 59 59 N N/A 30.15 1021 10 16 N/A
11:35 am 11:35 Sunny 74 23.6 58 14.5 57 57 N N/A 30.12 1020 7 11 N/A
11:55 am 11:55 Sunny 74 23.6 58 14.2 56 56 N N/A 30.12 1020 10 16 N/A
12:15 pm 12:15 Sunny 77 25.1 59 15 54 54 SSW 3 6 30.12 1020 10 16 N/A
12:35 pm 12:35 Sunny 77 25.1 58 14.6 52 52 N N/A 30.12 1020 10 16 N/A
12:55 pm 12:55 Sunny 80 26.5 58 14.7 48 48 N N/A 30.12 1020 10 16 N/A
1:15 pm 13:15 Sunny 80 26.5 58 14.5 48 48 N N/A 30.09 1019 10 16 N/A
1:35 pm 13:35 Sunny 80 26.6 59 14.8 48 48 E 3 6 30.09 1019 10 16 N/A
1:55 pm 13:55 Sunny 81 27.1 59 14.8 47 47 N N/A 30.09 1019 10 16 N/A
2:15 pm 14:15 Sunny 81 27.3 59 14.9 47 47 WSW 3 6 30.09 1019 10 16 N/A
2:35 pm 14:35 Sunny 81 27.4 59 15 47 47 N N/A 30.09 1019 10 16 N/A
2:55 pm 14:55 Sunny 82 28 59 15.2 46 46 SW 3 6 30.06 1018 10 16 N/A
3:15 pm 15:15 Sunny 82 28 59 14.9 45 45 N N/A 30.06 1018 10 16 N/A
3:35 pm 15:35 Sunny 82 28 59 15.1 45 45 N N/A 30.06 1018 10 16 N/A
3:55 pm 15:55 Sunny 82 28 60 15.3 46 46 N N/A 30.06 1018 10 16 N/A
4:15 pm 16:15 Sunny 83 28.2 60 15.5 46 46 SSW 3 6 30.03 1017 10 16 N/A
4:35 pm 16:35 Sunny 83 28.2 59 14.9 44 44 N N/A 30.03 1017 10 16 N/A
4:55 pm 16:55 Sunny 83 28.6 60 15.8 46 46 N N/A 30.00 1016 10 16 N/A
5:15 pm 17:15 Sunny 83 28.6 58 14.4 42 42 N N/A 30.00 1016 10 16 N/A
5:35 pm 17:35 Sunny 83 28.5 59 14.9 44 44 N N/A 30.00 1016 10 16 N/A
5:55 pm 17:55 Sunny 83 28.3 60 15.5 46 46 N N/A 30.03 1017 10 16 N/A
6:15 pm 18:15 Sunny 83 28.2 59 14.8 44 44 N N/A 29.97 1015 10 16 N/A
6:35 pm 18:35 Sunny 82 28 63 17.3 52 52 N N/A 30.00 1016 10 16 N/A
6:55 pm 18:55 Sunny 82 27.7 61 16.3 50 50 N N/A 30.00 1016 10 16 N/A
7:15 pm 19:15 Sunny 78 25.5 66 19.1 68 68 N N/A 30.00 1016 10 16 N/A
7:35 pm 19:35 Clear 77 24.9 65 18.2 66 66 N N/A 30.00 1016 10 16 N/A
7:55 pm 19:55 Clear 74 23.6 67 19.5 78 78 N N/A 30.00 1016 10 16 N/A
8:15 pm 20:15 Clear 74 23.6 67 19.5 78 78 N 3 6 30.00 1016 10 16 N/A
8:35 pm 20:35 Clear 73 22.6 65 18.6 78 78 N N/A 30.00 1016 10 16 N/A
8:55 pm 20:55 Clear 71 21.7 64 17.9 79 79 N N/A 30.03 1017 10 16 N/A
9:15 pm 21:15 Clear 70 20.9 63 17.1 79 79 N N/A 30.03 1017 10 16 N/A
9:35 pm 21:35 Clear 69 20.8 63 17.3 80 80 N N/A 30.00 1016 10 16 N/A
9:55 pm 21:55 Clear 69 20.8 64 17.5 82 82 N N/A 30.00 1016 10 16 N/A
10:15 pm 22:15 Clear 69 20.8 64 17.5 82 82 N N/A 30.03 1017 7 11 N/A
10:35 pm 22:35 Clear 69 20.8 64 17.5 82 82 N N/A 30.00 1016 7 11 N/A
10:55 pm 22:55 Hazy 69 20.8 64 17.8 83 83 N N/A 30.00 1016 5 8 N/A
11:15 pm 23:15 Clear 69 20.8 64 17.7 83 83 N N/A 30.00 1016 7 11 N/A
11:35 pm 23:35 Hazy 69 20.8 64 17.8 83 83 N N/A 30.00 1016 5 8 N/A
11:55 pm 23:55 Clear 69 20.8 64 17.8 83 83 N N/A 30.00 1016 7 11 N/A

Powered by AerisWeather